Vorticity
10 7 7 7 6 5 7 8 -3 -4 6 5 22 26 15 27 18 20 13 3 21 27 -3 5 2 2 6 6 6 5 5 5 8 6 8 7 7 11 9 9 6 10 -21 -4
11 11 8 7 6 4 6 8 7 2 -2 13 -6 11 17 42 30 -6 4 18 14 9 2 2 -2 -1 6 5 4 7 9 15 9 -7 11 10 7 12 8 6 5 9 3 6
6 11 10 7 7 6 4 7 6 6 1 -8 9 8 7 -1 12 25 36 15 23 14 -2 5 4 8 5 4 4 8 8 3 5 8 8 9 10 13 19 9 2 1 7 8
9 7 10 8 7 7 5 6 8 6 8 7 -7 0 3 -0 3 6 4 7 5 8 16 -1 7 1 2 5 6 7 9 4 7 9 13 10 10 9 3 7 14 11 7 10
13 10 3 10 9 10 7 3 7 5 6 7 10 3 3 -2 4 6 -1 4 8 -4 5 7 9 8 8 7 8 8 7 6 8 10 8 7 7 8 11 5 11 13 9 7
7 9 12 9 9 7 5 9 6 8 6 5 6 6 11 10 7 6 7 3 -2 3 4 5 5 7 9 8 8 9 6 8 8 4 6 6 12 4 10 9 6 5 9 9
8 8 10 12 12 6 8 8 6 8 8 6 5 5 6 7 7 7 9 12 9 7 6 6 8 10 9 8 8 7 8 11 6 4 5 4 8 8 7 6 9 18 20 13
10 9 11 9 12 15 8 7 8 7 8 6 4 6 8 8 6 7 8 8 6 8 10 8 8 6 8 9 6 8 12 7 6 4 5 3 10 4 5 8 4 10 12 12
9 11 8 13 7 10 15 10 6 7 7 10 6 6 5 4 7 7 8 6 7 13 8 9 8 8 7 7 7 12 7 3 5 5 2 6 9 7 9 2 3 4 8 9
8 9 7 7 10 9 9 9 17 9 5 6 7 7 7 8 6 5 8 10 10 8 10 9 6 6 7 7 9 6 5 8 6 5 3 8 5 6 3 4 -0 -2 14 -7
8 6 10 8 7 9 10 11 10 13 16 7 6 7 7 7 8 10 11 7 7 10 10 9 7 9 8 6 7 8 7 5 8 5 8 9 7 8 8 8 8 7 9 15
14 12 9 10 7 7 6 5 8 10 11 13 12 11 4 3 8 7 7 8 8 8 7 7 7 8 8 8 7 7 6 5 3 6 9 8 9 5 6 8 6 4 -4 12
7 12 12 8 7 10 11 8 5 9 9 11 12 12 13 13 13 11 5 8 7 8 9 7 6 6 6 6 6 4 3 4 10 9 12 8 2 7 3 5 7 -1 4 1
14 8 10 12 8 7 8 8 9 9 4 7 11 10 12 11 9 10 8 9 8 9 8 7 8 5 4 7 6 9 8 5 8 10 11 5 8 6 5 5 11 5 11 6
7 5 8 6 5 8 10 7 7 8 5 10 6 9 8 9 8 9 7 7 9 7 5 0 4 8 7 8 9 8 3 8 11 10 6 7 5 5 6 6 9 10 8 11
9 7 5 6 5 6 8 7 3 5 6 9 4 3 8 8 9 10 8 9 6 2 4 7 6 6 5 9 11 9 12 13 12 10 5 7 8 8 5 13 13 9 10 5
8 8 8 9 7 9 9 11 9 13 5 6 9 8 7 6 8 8 8 7 5 6 5 7 8 8 8 11 8 9 6 10 13 9 8 7 4 5 11 6 3 12 3 8
19 15 9 13 16 18 22 17 5 13 9 10 9 12 6 7 8 6 7 8 5 3 5 10 9 8 10 6 2 6 10 12 10 12 12 11 7 6 9 5 5 7 3 26
16 14 14 8 22 14 13 8 9 11 7 14 11 11 10 2 4 7 9 7 6 8 10 8 6 6 7 8 6 6 10 16 15 16 13 10 9 11 7 7 6 0 29 14
14 7 1 13 15 13 14 15 15 15 12 12 9 14 16 7 9 12 3 6 11 13 4 6 9 5 1 3 6 8 5 12 7 13 15 10 10 5 3 6 4 30 17 7
25 23 15 12 19 15 8 16 12 20 9 12 12 10 11 12 13 14 12 15 17 15 6 7 4 3 7 14 11 9 13 14 15 14 15 6 6 -1 3 7 12 18 6 8
10 13 29 16 9 14 21 1 22 -1 16 32 17 12 14 14 14 11 13 14 17 17 18 13 13 11 3 5 14 19 15 16 17 13 9 8 1 2 1 4 26 10 8 7
15 13 7 12 2 4 -3 8 13 6 -18 -5 5 23 12 12 9 11 13 13 12 16 23 15 12 -0 24 13 15 21 18 15 16 7 10 5 -4 0 9 19 20 6 8 9
0 6 13 -7 2 2 18 9 9 19 15 11 10 4 12 13 18 13 9 9 14 12 18 10 15 24 21 26 21 19 15 11 11 6 10 3 -3 17 13 25 8 7 10 7
7 -8 3 7 -2 16 14 10 16 14 17 17 22 9 5 15 13 12 16 15 10 14 23 21 23 17 20 18 20 14 10 11 11 12 2 -3 18 17 21 10 7 9 9 6
9 -6 9 8 8 1 7 13 13 8 12 1 13 31 4 6 21 11 11 9 14 7 19 17 19 19 18 16 11 13 12 10 8 5 6 13 26 22 11 6 8 10 6 6
31 5 11 -7 18 -1 3 5 15 10 13 13 -7 5 17 9 12 11 12 6 20 16 14 13 19 12 13 14 9 7 6 5 6 17 4 33 14 8 7 8 10 8 7 5
Height
5629 5639 5647 5658 5665 5674 5681 5688 5692 5698 5701 5705 5707 5713 5719 5724 5727 5733 5739 5743 5745 5749 5753 5757 5760 5762 5764 5766 5766 5767 5768 5769 5770 5770 5769 5768 5767 5766 5765 5763 5764 5763 5757 5756
5616 5625 5636 5645 5653 5662 5670 5676 5684 5688 5693 5697 5705 5709 5711 5713 5719 5724 5729 5733 5735 5741 5744 5748 5750 5753 5756 5758 5759 5761 5762 5763 5763 5762 5762 5760 5760 5760 5758 5758 5757 5757 5750 5754
5601 5611 5622 5632 5642 5650 5658 5666 5671 5678 5684 5690 5696 5703 5705 5710 5715 5718 5722 5726 5730 5735 5737 5739 5742 5746 5747 5750 5752 5753 5755 5755 5756 5756 5756 5754 5752 5751 5752 5752 5750 5745 5745 5740
5587 5597 5610 5619 5629 5637 5645 5655 5661 5669 5676 5682 5688 5694 5699 5703 5708 5713 5718 5722 5727 5729 5730 5732 5735 5738 5740 5742 5745 5745 5747 5748 5748 5749 5749 5747 5743 5744 5746 5743 5741 5735 5737 5731
5574 5587 5594 5606 5616 5623 5633 5643 5652 5660 5668 5674 5679 5685 5690 5696 5700 5705 5712 5716 5719 5721 5724 5727 5727 5730 5732 5735 5738 5738 5739 5740 5741 5742 5741 5739 5736 5741 5738 5736 5732 5728 5726 5723
5561 5572 5583 5594 5604 5614 5626 5636 5643 5649 5656 5664 5669 5676 5683 5688 5693 5697 5702 5707 5709 5713 5716 5717 5719 5721 5724 5727 5729 5730 5732 5734 5733 5735 5734 5732 5732 5733 5731 5728 5725 5722 5719 5713
5548 5558 5570 5581 5591 5603 5614 5623 5632 5640 5648 5655 5661 5667 5672 5679 5684 5688 5693 5698 5702 5707 5709 5710 5711 5714 5716 5718 5721 5723 5726 5726 5726 5727 5726 5723 5726 5724 5722 5720 5715 5711 5707 5702
5536 5546 5557 5568 5579 5590 5602 5611 5619 5628 5634 5641 5649 5657 5663 5667 5673 5678 5684 5688 5693 5697 5700 5701 5702 5706 5708 5711 5713 5716 5718 5718 5718 5719 5718 5715 5719 5715 5712 5709 5707 5701 5698 5694
5523 5534 5546 5556 5567 5577 5589 5599 5605 5616 5623 5631 5638 5645 5651 5657 5663 5669 5675 5677 5683 5688 5690 5691 5693 5697 5700 5703 5706 5708 5710 5710 5710 5710 5708 5707 5711 5705 5702 5699 5697 5693 5688 5685
5511 5523 5534 5545 5556 5566 5576 5587 5593 5601 5612 5619 5627 5634 5641 5647 5653 5658 5664 5669 5673 5678 5680 5683 5686 5688 5692 5695 5699 5702 5703 5702 5702 5701 5699 5700 5702 5696 5692 5691 5690 5685 5681 5678
5499 5511 5523 5534 5545 5554 5565 5575 5582 5590 5599 5607 5615 5622 5630 5637 5643 5649 5655 5658 5663 5667 5671 5674 5678 5680 5683 5686 5689 5692 5693 5692 5694 5693 5692 5694 5693 5688 5686 5683 5679 5676 5672 5669
5487 5500 5513 5523 5533 5543 5552 5562 5571 5577 5586 5597 5603 5610 5618 5625 5632 5639 5642 5647 5654 5658 5661 5665 5668 5672 5676 5678 5679 5683 5683 5684 5684 5688 5688 5687 5682 5679 5676 5673 5671 5667 5664 5660
5476 5488 5501 5512 5522 5531 5542 5550 5559 5565 5576 5585 5591 5599 5608 5614 5620 5627 5633 5638 5642 5648 5652 5657 5659 5662 5667 5669 5671 5671 5672 5674 5676 5678 5680 5676 5672 5670 5667 5665 5662 5659 5656 5651
5464 5478 5490 5501 5511 5520 5530 5538 5547 5555 5567 5572 5583 5589 5596 5603 5609 5614 5621 5627 5632 5637 5641 5645 5650 5653 5656 5659 5660 5661 5661 5663 5669 5670 5669 5664 5665 5661 5659 5656 5654 5650 5647 5641
5453 5466 5478 5490 5500 5509 5518 5525 5533 5544 5556 5563 5573 5576 5585 5590 5596 5604 5610 5616 5622 5626 5631 5635 5639 5642 5646 5648 5649 5651 5653 5654 5659 5659 5656 5655 5655 5652 5650 5648 5645 5641 5637 5631
5442 5455 5468 5479 5489 5495 5502 5510 5520 5537 5545 5552 5557 5565 5572 5579 5585 5592 5599 5606 5611 5615 5619 5625 5629 5633 5635 5636 5639 5642 5642 5648 5649 5648 5643 5644 5643 5642 5641 5639 5636 5632 5627 5621
5432 5445 5457 5468 5478 5482 5493 5508 5525 5526 5532 5538 5544 5549 5558 5566 5573 5581 5589 5595 5601 5605 5609 5613 5617 5621 5622 5626 5629 5632 5632 5642 5639 5636 5635 5635 5634 5634 5632 5630 5627 5623 5617 5612
5422 5435 5447 5458 5465 5471 5480 5498 5507 5512 5518 5525 5530 5535 5547 5556 5566 5572 5578 5584 5589 5593 5598 5603 5607 5610 5613 5615 5621 5623 5629 5628 5627 5625 5625 5625 5625 5625 5623 5621 5618 5613 5608 5604
5412 5426 5437 5441 5445 5459 5481 5489 5491 5497 5502 5507 5515 5528 5537 5548 5555 5562 5568 5572 5576 5581 5588 5593 5596 5601 5603 5611 5610 5613 5619 5618 5616 5615 5615 5616 5616 5616 5614 5611 5608 5603 5600 5595
5404 5413 5418 5425 5443 5461 5468 5471 5475 5482 5486 5492 5503 5517 5528 5538 5546 5551 5558 5563 5565 5569 5578 5579 5585 5593 5597 5597 5601 5603 5607 5608 5605 5606 5606 5606 5609 5607 5605 5602 5598 5595 5591 5588
5392 5400 5413 5430 5441 5448 5450 5456 5464 5471 5474 5481 5497 5510 5522 5528 5534 5541 5546 5549 5553 5559 5565 5567 5574 5581 5586 5589 5591 5592 5595 5596 5597 5597 5596 5599 5600 5598 5595 5593 5591 5587 5584 5580
5389 5401 5411 5417 5426 5432 5436 5444 5453 5462 5468 5478 5493 5506 5513 5518 5524 5529 5534 5538 5541 5547 5552 5556 5563 5573 5574 5579 5580 5583 5584 5585 5586 5587 5589 5590 5589 5588 5586 5585 5582 5580 5577 5573
5389 5397 5407 5410 5415 5418 5424 5430 5441 5450 5463 5475 5488 5499 5505 5510 5516 5520 5525 5528 5531 5537 5542 5545 5555 5563 5565 5568 5571 5572 5575 5575 5577 5579 5581 5581 5580 5579 5579 5577 5574 5572 5570 5567
5385 5390 5396 5403 5408 5414 5426 5436 5445 5457 5467 5479 5486 5495 5498 5504 5510 5514 5515 5515 5520 5526 5532 5539 5551 5550 5552 5557 5560 5562 5564 5566 5569 5571 5572 5572 5571 5571 5570 5568 5567 5565 5563 5559
5379 5388 5393 5397 5405 5414 5426 5435 5444 5454 5464 5473 5479 5484 5489 5495 5496 5498 5503 5507 5511 5519 5530 5536 5538 5540 5542 5547 5550 5553 5555 5558 5560 5562 5562 5563 5563 5562 5561 5561 5559 5558 5555 5552
5379 5384 5388 5395 5404 5412 5422 5430 5440 5448 5456 5463 5468 5473 5478 5483 5487 5491 5496 5501 5510 5522 5525 5525 5528 5532 5535 5538 5541 5544 5547 5550 5552 5552 5553 5554 5554 5553 5554 5553 5552 5551 5548 5544
5374 5381 5390 5398 5406 5417 5423 5431 5439 5446 5451 5456 5464 5469 5472 5479 5482 5487 5494 5505 5510 5511 5512 5516 5520 5524 5527 5531 5534 5537 5540 5541 5542 5544 5544 5545 5546 5547 5546 5546 5545 5543 5541 5536